Flag for United Kingdom Weather past 2 weeks in Perth, Scotland, United Kingdom

Now
47 °F

Cool.


Feels Like: 44 °F
Forecast: 39 / 50 °F
Wind: 7 mph from Southwest

Location: Strathallan

Current Time: May 5, 2015 at 11:33:48 PM

Latest Report: May 5, 2015 at 9:00 PM


Visibility: 31 mi

Pressure: 29.09 "Hg

Humidity: 83%

Dew point: 42 °F

Location of PerthLocation

Historic Weather in Perth — Graph

°F

Perth temperature yesterday

Maximum temperature yesterday: 58 °F (at 3:00 PM)
Minimum temperature yesterday: 44 °F (at 12:00 AM)
Average temperature yesterday: 51 °F

Past Weeks' High & Low Weather Summary

 TemperatureHumidityPressure
High68 °F (Apr 22, 6:00 PM)100% (Apr 22, 6:00 AM)30.61 "Hg (Apr 22, 6:00 AM)
Low26 °F (May 1, 5:00 AM)35% (Apr 25, 7:00 PM)29.03 "Hg (May 5, 5:00 PM)
Average45 °F76%29.81 "Hg
* Reported Apr 20 9:00 PM — May 5 9:00 PM, Perth, Weather by CustomWeather, © 2015

Note: Actual official high and low records may vary slightly from our data, if they occured in-between our weather recording intervals... More about our weather records

Advertising

Perth weather history for previous 24 hours

 ConditionsComfort  
Time TempWeatherWind HumidityBarometerVisibility
9:00 PM
Tue, May 5
47 °FCool.7 mph83%29.09 "Hg31 mi
8:00 PM49 °FCool.9 mph80%29.06 "Hg28 mi
7:00 PM49 °FCool.14 mph80%29.06 "Hg31 mi
6:00 PM48 °FRain. Cloudy.9 mph92%29.06 "Hg8 mi
5:00 PM47 °FRain. Cloudy.8 mph99%29.03 "Hg4 mi
4:00 PM47 °FRain. Cloudy.13 mph99%29.06 "Hg9 mi
3:00 PM47 °FRain. Cloudy.12 mph99%29.06 "Hg2 mi
2:00 PM47 °FRain. Cloudy.10 mph97%29.06 "Hg6 mi
1:00 PM47 °FRain. Cloudy.6 mph98%29.09 "Hg4 mi
12:00 PM47 °FRain. Cloudy.10 mph95%29.12 "Hg6 mi
11:00 AM47 °FRain. Cloudy.13 mph96%29.15 "Hg8 mi
10:00 AM47 °FRain. Cloudy.10 mph95%29.18 "Hg6 mi
9:00 AM47 °FRain. Cloudy.10 mph95%29.23 "Hg6 mi
8:00 AM47 °FLots of rain. Cloudy.10 mph92%29.26 "Hg9 mi
7:00 AM47 °FCool.8 mph91%29.26 "Hg13 mi
6:00 AM45 °FCool.9 mph91%29.29 "Hg14 mi
5:00 AM45 °FQuite cool.6 mph89%29.32 "Hg16 mi
4:00 AM43 °FQuite cool.3 mph91%29.38 "Hg19 mi
3:00 AM42 °FQuite cool.2 mph84%29.38 "Hg19 mi
2:00 AM41 °FQuite cool.2 mph92%29.41 "Hg19 mi
1:00 AM40 °FQuite cool.3 mph89%29.44 "Hg17 mi
12:00 AM42 °FQuite cool.1 mph84%29.47 "Hg25 mi
11:00 PM
Mon, May 4
44 °FQuite cool.5 mph75%29.47 "Hg22 mi
Weather by CustomWeather, © 2015

See weather overviewHow to use our weather pages